Location: Colonia Mina de C?rbuni
(46.1667°N, 22.7167°E)
Time: 16:55:26
(UTC+00:00)

Cosmos 1763 Rocket - Pass Details

Date: 04 February 2023
Orbit: 733 x 778 km, 74.0° (Epoch: 29 March)

Event Time Altitude Azimuth Distance (km) Brightness Sun altitude
Rises 15:56:17 0° 342° (NNW) 3,226 6.7 -3.8°
Reaches altitude 10° 15:58:47 10° 349° (N) 2,289 5.9 -4.2°
Maximum altitude 16:03:45 45° 62° (ENE) 1,021 3.8 -5.0°
Drops below altitude 10° 16:08:37 10° 135° (SE) 2,248 5.7 -5.8°
Sets 16:11:03 0° 141° (SE) 3,161 6.5 -6.2°
